Weather History for Hafr Al-Batin, Saudi Arabia

Change the Weather History Date:

Thursday, February 14, 2013

  Actual Average Record
Temperature  
Mean Temperature 54 °F -  
Max Temperature 67 °F 71 °F 82 °F (2009)
Min Temperature 41 °F 50 °F 39 °F (1998)
Degree Days  
Heating Degree Days 11    
Growing Degree Days 4 (Base 50)    
Moisture  
Dew Point 40 °F    
Average Humidity 49    
Maximum Humidity 87    
Minimum Humidity 27    
Precipitation  
Precipitation 0.00 in - - ()
Sea Level Pressure  
Sea Level Pressure 30.16 in    
Wind  
Wind Speed 4 mph ()    
Max Wind Speed 10 mph    
Max Gust Speed -    
Visibility 6.0 miles    
Events      
Averages and records for this station are not official NWS values.
T = Trace of Precipitation, MM = Missing Value Source: Averaged Metar Reports

Daily Weather History Graph

Daily Weather History Graph

Search for Another Location

Airport:

Trip Planner

Search our weather history database for the weather conditions in past years. The results will help you decide how hot, cold, wet, or windy it might be!

Date:

Astronomy

Feb. 14, 2013 Rise Set
Actual Time 6:36 AM AST 5:48 PM AST
Civil Twilight 6:12 AM AST 6:12 PM AST
Nautical Twilight 5:44 AM AST 6:39 PM AST
Astronomical Twilight 5:17 AM AST 7:07 PM AST
Moon 8:53 AM AST (2/14) 9:58 PM AST (2/14)
Length of Visible Light 12h 00m
Length of Day
11h 12m
Waxing Crescent, 18% of the Moon is Illuminated
Feb 14
Waxing Crescent
Feb 17
First Quarter
Feb 25
Full
Mar 5
Last Quarter
Mar 11
New

Hourly Weather History & Observations

Time (AST) Temp. Dew Point Humidity Pressure Visibility Wind Dir Wind Speed Gust Speed Precip Events Conditions
7:00 AM 42.8 °F 39.2 °F 87% 30.21 in - Calm Calm - N/A   Clear
8:00 AM 44.6 °F 39.2 °F 81% 30.21 in - Calm Calm - N/A   Clear
9:00 AM 55 °F 45 °F 59% 30.20 in 6 mi NNE 6.9 mph - -  
9:00 AM 55.4 °F 44.6 °F 67% 30.21 in - NNE 6.9 mph - N/A   Clear
10:00 AM 57.2 °F 46.4 °F 67% 30.24 in - NE 8.1 mph - N/A   Clear
11:00 AM 60.8 °F 42.8 °F 52% 30.21 in - NNE 4.6 mph - N/A   Clear
12:00 PM 63 °F 43 °F 36% 30.16 in 6 mi North 5.8 mph - -  
12:00 PM 62.6 °F 42.8 °F 48% 30.18 in - North 5.8 mph - N/A   Clear
1:00 PM 64.4 °F 42.8 °F 45% 30.15 in - NNE 5.8 mph - N/A   Clear
2:00 PM 64.4 °F 41.0 °F 42% 30.15 in - NNE 5.8 mph - N/A   Clear
3:00 PM 66 °F 41 °F 28% 30.10 in 6 mi NNE 6.9 mph - -  
3:00 PM 66.2 °F 41.0 °F 40% 30.12 in - NNE 6.9 mph - N/A   Clear
4:00 PM 68.0 °F 41.0 °F 37% 30.12 in - NNE 6.9 mph - N/A   Clear
5:00 PM 66.2 °F 39.2 °F 37% 30.12 in - NE 5.8 mph - N/A   Clear
6:00 PM 63 °F 37 °F 27% 30.12 in 6 mi ENE 10.4 mph - -  
6:00 PM 62.6 °F 37.4 °F 39% 30.12 in - ENE 10.4 mph - N/A   Clear
7:00 PM 59.0 °F 37.4 °F 45% 30.12 in - ENE 5.8 mph - N/A   Clear
8:00 PM 59.0 °F 37.4 °F 45% 30.15 in - Calm Calm - N/A   Clear
9:00 PM 57 °F 37 °F 36% 30.17 in 6 mi Calm Calm - -  
9:00 PM 57.2 °F 37.4 °F 48% 30.15 in - Calm Calm - N/A   Clear
10:00 PM 55.4 °F 37.4 °F 51% 30.15 in - Calm Calm - N/A   Clear
11:00 PM 53.6 °F 37.4 °F 54% 30.15 in - Calm Calm - N/A   Clear